Presure
135 139 142 160 148 146 158 125 157 155 137 153 167 167 153 151 169 173 136 172 158 176 160 172 166 161 149 144 148 140 151 152 155 159 154 149 166 187 181 174 171 163 188
150 126 132 165 136 117 147 109 176 143 164 164 157 162 165 157 154 180 151 158 183 194 170 182 149 153 174 158 140 160 144 157 144 163 191 168 190 159 165 158 149 161 171
153 158 171 124 130 130 158 125 146 134 142 158 170 159 177 176 143 136 158 163 123 166 174 148 147 140 152 149 164 160 143 158 167 158 167 133 179 167 178 172 161 207 217
187 183 150 160 103 162 148 135 179 157 169 150 129 128 132 126 172 123 132 131 177 157 143 127 144 155 150 163 139 156 149 190 170 152 158 191 148 147 163 144 161 141 205
119 116 139 172 144 145 157 116 159 143 123 102 155 149 121 100 157 140 171 160 132 161 138 163 138 205 150 153 145 141 146 163 190 135 151 151 185 169 151 196 200 165 157
126 124 121 149 144 123 113 166 158 130 146 134 176 129 154 165 121 148 128 137 159 145 140 134 147 180 136 183 149 166 138 170 141 165 177 203 125 202 208 206 183 183 160
130 128 198 177 139 132 146 109 147 117 143 110 115 110 103 109 158 137 123 182 133 147 136 239 234 148 156 181 144 163 153 228 158 174 130 167 203 209 172 166 169 201 195
136 137 135 121 153 167 158 111 136 134 151 154 149 148 147 100 158 165 143 168 124 152 232 221 138 155 149 168 166 144 152 181 175 179 201 171 194 155 143 145 186 190 147
135 163 175 143 136 157 193 154 126 102 158 109 156 122 139 156 154 171 175 155 128 157 158 150 151 145 153 176 184 162 181 133 186 147 159 182 161 175 152 150 184 196 197
128 136 133 136 150 174 93 149 196 153 144 181 181 163 166 122 143 175 174 208 128 128 149 160 168 170 159 144 188 140 140 210 170 192 167 133 133 194 174 170 155 184 163
127 206 146 140 140 131 167 101 171 171 87 123 153 168 147 192 164 197 179 106 128 144 146 160 170 180 170 161 163 147 187 186 134 149 129 157 166 190 152 152 165 204 299
139 152 149 167 100 137 105 181 141 197 81 160 177 156 167 138 120 134 136 143 129 146 143 158 172 153 181 178 192 153 177 164 180 161 184 151 146 199 155 197 190 252 321
123 145 152 145 169 140 175 169 131 160 191 174 167 186 198 125 110 195 139 128 165 140 168 130 167 177 177 176 186 139 209 187 173 174 185 150 199 174 195 215 224 257 328
157 176 179 168 184 156 158 178 172 171 156 150 181 147 128 193 164 176 195 165 158 186 162 217 150 208 174 174 162 180 160 187 192 193 203 194 209 184 225 224 239 258 344
168 181 173 151 208 171 189 181 183 146 129 139 184 181 135 165 206 139 142 127 165 193 183 187 138 172 176 170 152 201 194 200 205 208 186 214 171 203 234 239 220 286 359
190 171 188 170 176 185 174 175 173 182 189 182 126 147 164 145 156 179 183 136 195 139 175 163 188 160 133 138 211 204 174 199 169 194 189 208 198 190 229 225 175 344 363
198 192 184 186 193 201 197 191 187 176 192 199 167 160 189 171 143 199 156 195 141 197 198 152 208 169 190 169 212 195 197 191 192 154 180 216 205 217 245 227 240 289 343
173 171 168 159 188 170 201 192 198 205 190 187 168 176 125 127 195 204 144 167 169 178 194 198 175 200 179 188 201 216 142 133 168 201 207 222 205 238 241 237 309 302 333
166 172 194 206 194 174 188 170 186 155 167 192 178 194 197 167 200 194 158 194 180 152 193 175 183 187 189 188 185 205 205 192 212 197 197 225 231 220 224 235 311 326 327
173 184 175 172 182 175 209 175 168 194 178 180 173 173 197 171 192 180 186 183 157 197 199 164 178 171 191 199 175 187 200 184 183 204 193 209 200 215 226 239 284 288 325
181 182 180 178 179 182 183 177 176 190 195 190 199 184 190 164 199 183 178 177 193 158 199 165 191 183 200 165 191 210 189 202 203 206 197 223 189 234 239 263 279 319 320
176 178 174 176 178 192 212 207 205 170 178 192 189 184 183 200 180 196 177 195 196 193 142 200 192 181 198 184 194 215 207 189 214 164 210 181 206 238 308 294 335 318 312
180 174 174 178 186 174 190 176 194 193 180 180 188 199 168 175 188 156 180 171 188 187 185 189 193 182 185 199 178 193 196 177 210 213 203 187 219 215 236 245 292 311 305
171 171 189 190 192 204 179 192 181 198 166 190 189 184 192 164 189 183 197 184 195 209 177 188 190 181 206 198 181 197 175 188 204 213 195 205 220 252 287 321 290 305 296
179 179 194 207 173 174 185 178 186 205 175 170 171 189 179 179 200 181 194 169 188 186 187 182 186 181 197 195 169 202 208 209 208 191 179 214 240 278 319 261 308 297 295
180 180 190 176 179 180 180 181 182 186 185 191 177 176 173 178 191 177 180 182 182 164 195 192 185 171 181 203 185 200 180 215 191 190 257 240 272 341 313 313 302 290 285
Wind_Speed
41 35 36 43 40 40 45 43 48 44 44 46 48 48 47 43 48 49 43 47 40 42 37 36 25 39 39 41 41 47 43 44 46 46 48 51 47 52 52 53 51 56 48
40 42 39 48 43 50 40 36 49 46 46 50 50 51 52 42 44 53 35 48 52 49 32 43 37 37 48 37 46 40 48 43 51 48 49 48 53 51 50 56 62 59 54
41 48 50 48 48 46 47 48 47 49 45 52 53 50 57 56 17 36 46 38 49 27 46 35 37 42 39 42 40 42 51 44 44 46 46 61 52 53 52 53 58 62 70
54 57 48 49 38 50 49 52 57 49 54 46 37 32 31 31 55 43 45 43 46 35 40 52 44 41 42 40 54 44 49 46 46 50 49 57 60 63 59 64 61 62 79
48 47 48 51 50 50 55 48 51 51 39 34 50 38 37 36 36 44 42 43 48 37 52 35 51 55 45 42 50 54 53 47 51 64 57 61 62 67 66 47 63 56 62
54 55 54 54 56 35 35 56 54 49 48 43 66 43 50 48 49 49 46 41 40 38 49 53 46 42 55 45 49 44 64 48 65 51 55 66 65 80 87 88 67 69 63
56 60 66 58 58 66 60 29 60 32 53 38 42 42 42 47 41 37 52 62 48 39 55 58 53 51 47 49 59 47 52 47 51 45 66 56 82 90 54 63 65 96 82
59 59 62 48 56 56 55 31 53 51 65 56 53 46 36 46 50 52 52 49 61 67 63 61 58 52 54 47 48 63 62 50 42 58 71 51 81 69 72 74 84 83 78
62 65 64 45 68 62 66 63 51 41 70 48 64 38 52 57 49 62 56 57 58 44 41 53 58 59 54 53 55 56 51 77 51 69 66 53 69 75 75 79 84 112 102
64 67 71 70 56 70 39 59 71 75 60 83 79 67 64 49 33 57 56 73 61 61 54 52 56 56 58 64 64 70 76 75 54 63 72 71 73 91 60 75 73 94 77
69 69 71 72 71 71 69 42 79 82 38 43 60 75 59 81 62 77 67 49 62 52 55 58 60 67 67 51 50 60 60 52 82 74 70 80 82 94 84 82 87 106 84
71 70 73 69 47 77 48 71 69 83 38 72 87 76 69 66 54 44 47 61 61 56 64 67 63 69 57 57 68 64 60 63 63 68 88 76 83 107 80 101 89 124 75
60 68 75 81 78 80 76 80 53 78 92 78 66 95 97 52 58 78 54 59 60 58 62 66 51 64 55 51 76 79 92 61 63 78 68 85 109 83 107 119 118 125 63
82 85 83 82 78 88 88 85 86 85 73 47 95 53 41 92 66 76 88 81 55 72 67 85 76 83 79 57 66 48 82 62 78 87 97 100 117 99 127 128 129 133 55
86 90 84 81 67 90 87 89 93 73 50 50 90 90 60 75 98 62 56 72 50 96 74 78 68 51 65 54 65 90 87 95 103 110 65 119 97 99 136 139 106 102 49
94 89 80 81 87 83 93 100 100 89 101 96 51 75 70 60 86 90 90 65 99 70 73 83 85 64 72 71 104 106 76 98 76 80 63 94 97 85 129 136 94 60 46
89 92 91 94 78 80 82 91 100 100 103 99 74 68 78 84 51 94 75 100 76 98 104 62 91 80 95 58 110 98 103 88 102 71 76 127 104 114 147 143 138 89 46
103 98 92 86 99 97 84 95 95 91 100 108 83 96 68 73 101 97 60 70 73 90 95 110 74 109 75 83 115 117 73 75 67 105 132 139 111 149 145 144 88 79 45
100 107 91 77 86 89 86 102 97 74 87 100 108 102 104 95 103 100 73 108 98 69 99 87 102 93 101 99 70 121 114 90 123 108 102 145 141 128 136 147 81 55 47
109 108 101 96 95 102 85 86 100 95 110 94 87 80 107 82 110 108 108 116 74 118 117 80 95 81 110 119 87 93 120 71 84 126 100 121 104 131 145 130 89 71 44
112 112 108 104 103 100 108 102 107 112 113 107 107 115 114 84 108 119 86 108 124 75 119 70 127 110 125 75 107 133 89 131 132 131 118 143 100 150 156 94 91 49 43
108 110 105 109 110 112 99 106 108 107 112 113 117 113 116 113 122 116 115 126 125 119 59 124 127 99 131 109 132 136 141 96 144 62 140 76 129 162 82 81 46 47 46
109 103 105 111 112 112 113 119 115 108 122 111 119 114 102 121 133 75 114 100 137 124 125 126 134 101 106 128 81 104 123 76 138 152 127 92 145 130 112 126 67 45 46
103 103 108 115 115 111 100 117 109 117 103 122 123 124 123 89 132 127 132 133 133 131 100 131 133 109 141 138 87 128 79 112 140 150 113 140 150 136 90 52 63 43 45
120 121 123 114 119 120 121 125 125 116 121 111 121 125 127 134 125 137 138 94 129 137 135 121 133 109 138 141 72 141 156 154 145 109 84 161 120 88 59 86 43 40 41
124 124 114 118 124 126 130 132 132 135 136 126 130 130 124 132 139 135 134 138 138 76 152 144 131 75 106 151 102 147 92 159 116 96 152 142 98 49 50 41 39 39 40
Wind_Direction
268 268 270 267 276 280 272 285 280 282 286 283 280 281 287 298 286 287 308 298 301 306 305 314 301 313 308 309 309 313 311 314 317 318 316 314 317 334 328 324 315 317 318
263 271 269 266 280 286 278 294 266 283 278 278 281 282 282 295 297 291 300 308 309 304 314 322 297 305 316 308 303 312 306 315 320 320 329 319 331 313 310 309 313 310 308
262 262 261 277 272 273 276 286 283 283 286 280 279 281 282 287 311 294 295 309 303 306 317 294 296 299 303 301 311 312 302 314 319 312 317 313 325 309 313 308 306 340 345
257 258 266 265 289 272 280 278 268 277 273 283 295 298 297 302 289 296 302 299 305 302 293 302 297 302 301 308 302 309 306 328 318 304 307 337 309 305 309 313 306 321 338
275 281 273 264 269 275 269 286 275 281 286 293 283 290 296 299 295 294 301 305 299 302 300 307 304 305 300 302 296 296 299 315 332 311 315 301 341 328 309 318 332 304 309
278 280 279 272 273 267 272 267 273 290 285 289 274 286 289 293 295 299 296 292 296 292 294 295 298 311 295 311 295 310 313 317 314 313 322 345 318 351 352 344 324 327 314
276 276 252 267 275 275 271 294 276 296 284 288 290 295 298 296 300 288 290 301 288 292 289 298 304 292 301 317 293 310 298 323 304 317 315 300 349 351 305 294 295 336 328
271 270 274 276 271 274 272 289 278 288 280 280 289 295 295 292 300 304 300 301 289 299 295 298 292 297 294 309 308 291 310 315 308 323 346 311 342 324 306 314 331 327 302
276 264 262 264 271 270 268 275 287 287 278 285 284 286 286 296 293 299 297 301 287 306 301 304 288 290 296 318 325 302 321 299 317 315 289 326 315 328 295 297 328 328 316
280 273 271 270 271 272 280 271 266 277 287 272 275 284 286 288 288 299 309 288 282 288 301 300 314 313 304 292 324 293 291 339 309 342 310 309 308 340 309 310 296 318 298
279 250 270 273 272 277 275 278 267 271 279 278 287 285 280 282 299 286 299 291 283 295 294 303 309 319 310 292 291 317 324 329 306 292 310 285 309 336 299 295 314 327 321
273 267 269 265 280 274 275 265 279 264 283 282 280 282 289 281 278 283 283 288 282 294 295 301 312 296 313 312 324 290 310 279 317 297 330 321 296 333 295 334 326 335 308
274 272 269 271 266 273 270 274 280 280 269 277 284 283 279 267 283 292 275 279 296 286 292 290 293 299 306 307 320 289 326 338 307 314 325 289 332 321 332 330 334 338 298
270 261 261 266 260 275 278 270 268 275 275 283 282 270 263 282 300 297 295 299 286 304 304 310 284 311 305 293 289 310 303 332 332 329 327 332 327 322 328 336 337 336 296
265 260 264 275 254 266 256 268 267 281 275 269 275 282 263 295 288 287 262 291 304 311 295 316 292 295 300 288 281 321 324 318 323 323 330 327 314 328 328 328 331 330 293
253 264 260 266 263 263 270 271 279 277 273 276 260 270 281 263 292 304 304 275 306 273 298 304 313 291 281 281 313 315 297 326 315 331 315 333 326 321 330 332 322 315 299
251 251 258 259 260 253 259 261 268 275 273 271 294 288 274 296 267 294 279 301 289 304 305 283 303 292 318 297 310 322 307 312 311 302 310 326 330 332 329 332 332 326 304
265 266 275 280 258 276 256 258 260 262 275 281 293 287 257 263 291 290 270 304 302 307 304 305 311 310 311 315 314 308 278 287 305 326 322 320 329 322 328 329 328 321 304
275 273 255 252 254 274 258 280 264 287 284 280 293 283 283 296 286 291 292 298 297 287 302 310 312 308 313 315 317 313 309 323 316 328 328 319 322 325 328 327 324 312 305
268 258 272 275 263 276 255 273 286 264 283 278 281 282 283 289 292 299 299 302 291 299 298 299 303 300 309 309 307 308 312 319 313 321 319 325 319 324 326 323 322 317 303
259 264 269 274 275 273 271 278 281 271 269 279 275 290 285 297 284 298 291 302 298 285 295 299 305 304 304 295 315 307 316 314 316 319 317 319 313 322 325 321 321 309 302
270 270 278 278 276 265 260 261 262 288 284 276 278 283 288 281 294 285 300 293 291 295 274 296 302 307 303 312 310 302 305 323 308 300 318 310 319 322 320 320 309 308 305
268 274 276 275 269 280 270 282 269 270 281 282 277 272 293 294 289 291 293 300 298 293 298 300 301 300 304 302 305 308 307 312 309 312 314 315 319 318 316 318 312 307 305
276 276 264 262 266 255 270 267 274 268 286 273 277 282 275 294 287 289 284 294 291 285 296 298 300 303 294 300 306 301 304 313 312 313 314 316 319 317 316 307 311 305 304
266 270 259 255 274 273 272 275 274 267 281 285 287 278 286 287 279 290 287 293 289 295 297 299 297 302 295 299 302 304 300 305 307 308 309 315 315 313 306 311 302 303 302
267 268 261 274 273 272 274 275 276 273 275 273 284 286 286 287 282 289 291 291 292 291 289 291 296 300 302 294 304 301 303 300 307 307 313 313 311 304 300 295 299 301 303